{"data":{"norad_id":68505,"intl_designator":"2026-067CT","name":"GEMS2-AMETHYST","alt_names":[],"object_type":"PAYLOAD","status":"ACTIVE","operator":null,"country":"US","launch_date":"2026-03-30","launch_site_code":"AFWTR","launch_vehicle":null,"mission":null,"orbit_class":"UNKNOWN","rcs_meters":null,"size_class":null,"mass_kg":null,"dimensions":null,"purposes":[],"wikipedia_slug":null,"has_3d_model":false,"image_url":null,"decayed_at":null,"tle_current":{"epoch":"2026-05-25T03:29:09.725280Z","epoch_age_seconds":55872,"freshness":"FRESH","line1":"1 68505U 26067CT  26145.14525145  .00003666  00000+0  37693-3 0  9991","line2":"2 68505  97.7590 103.6781 0006950 112.8983 247.2969 14.90922619  8281","mean_motion":14.90922619,"eccentricity":0.000695,"inclination_deg":97.759,"raan_deg":103.6781,"arg_perigee_deg":112.8983,"mean_anomaly_deg":247.2969,"bstar":0.00037693,"rev_number":828,"period_min":96.584489473092,"perigee_km":590.21102318954,"apogee_km":599.90376339622,"semimajor_km":6973.1943932929,"source":"CELESTRAK","updated_at":"2026-05-25T13:38:07.880385Z"}}}